Weather History for KHBG - January, 2012

Change the Weather History Date:

Monday, January 16, 2012

  Actual Average Record
Temperature  
Mean Temperature 56 °F 48 °F  
Max Temperature 73 °F 60 °F 80 °F (1952)
Min Temperature 39 °F 37 °F 21 °F (1972)
Degree Days  
Heating Degree Days 9 17  
Month to date heating degree days 207 265  
Since 1 July heating degree days 951 1050  
Cooling Degree Days 0 0  
Month to date cooling degree days 4 0  
Year to date cooling degree days 4 0  
Growing Degree Days 7 (Base 50)    
Moisture  
Dew Point 50 °F    
Average Humidity 71    
Maximum Humidity 89    
Minimum Humidity 53    
Precipitation  
Precipitation 0.00 in 0.16 in 2.50 in (1955)
Month to date precipitation 0.61 2.83  
Year to date precipitation 0.61 2.83  
Sea Level Pressure  
Sea Level Pressure 30.29 in    
Wind  
Wind Speed 8 mph (SSE)    
Max Wind Speed 23 mph    
Max Gust Speed 31 mph    
Visibility 10 miles    
Events      
T = Trace of Precipitation, MM = Missing Value Source: NWS Daily Summary

Daily Weather History Graph

Daily Weather History Graph

Search for Another Location

Airport or City:

Trip Planner

Search our weather history database for the weather conditions in past years. The results will help you decide how hot, cold, wet, or windy it might be!

Date:

Astronomy

Jan. 16, 2012 Rise Set
Actual Time 6:56 AM CST 5:17 PM CST
Civil Twilight 6:30 AM CST 5:43 PM CST
Nautical Twilight 6:00 AM CST 6:13 PM CST
Astronomical Twilight 5:31 AM CST 6:42 PM CST
Moon 12:12 AM CST (1/16) 11:25 AM CST (1/16)
Length of Visible Light 11h 13m
Length of Day
10h 21m
Last Quarter, 46% of the Moon is Illuminated
Jan 16
Last Quarter
Jan 23
New
Jan 30
First Quarter
Feb 7
Full
Feb 14
Last Quarter

Hourly Weather History & Observations

Time (CST) Temp. Windchill Dew Point Humidity Pressure Visibility Wind Dir Wind Speed Gust Speed Precip Events Conditions
12:53 AM 43.0 °F - 37.9 °F 82% 30.39 in 10.0 mi Calm Calm - N/A   Mostly Cloudy
1:53 AM 43.0 °F 41.3 °F 39.0 °F 86% 30.38 in 10.0 mi NW 3.5 mph - N/A   Mostly Cloudy
2:53 AM 44.1 °F 42.5 °F 39.9 °F 85% 30.37 in 10.0 mi SSE 3.5 mph - N/A   Mostly Cloudy
3:53 AM 46.0 °F - 42.1 °F 86% 30.35 in 10.0 mi Calm Calm - N/A   Overcast
4:53 AM 46.9 °F - 43.0 °F 86% 30.35 in 10.0 mi Calm Calm - N/A   Overcast
5:53 AM 48.0 °F - 44.1 °F 86% 30.35 in 10.0 mi Calm Calm - N/A   Overcast
6:53 AM 48.9 °F - 45.0 °F 86% 30.35 in 10.0 mi ESE 3.5 mph - N/A   Overcast
7:53 AM 51.1 °F - 46.9 °F 86% 30.35 in 10.0 mi SE 4.6 mph - N/A   Mostly Cloudy
8:53 AM 61.0 °F - 54.0 °F 78% 30.35 in 10.0 mi SSE 11.5 mph - N/A   Mostly Cloudy
9:53 AM 63.0 °F - 54.0 °F 72% 30.35 in 10.0 mi SSE 6.9 mph - N/A   Unknown
11:53 AM 71.1 °F - 54.0 °F 55% 30.29 in 10.0 mi South 13.8 mph 26.5 mph N/A   Overcast
12:53 PM 71.1 °F - 53.1 °F 53% 30.26 in 10.0 mi South 17.3 mph 25.3 mph N/A   Overcast
1:53 PM 71.1 °F - 53.1 °F 53% 30.24 in 10.0 mi South 16.1 mph 23.0 mph N/A   Overcast
2:53 PM 70.0 °F - 52.0 °F 53% 30.23 in 10.0 mi South 18.4 mph 25.3 mph N/A   Mostly Cloudy
3:53 PM 69.1 °F - 52.0 °F 54% 30.23 in 10.0 mi South 17.3 mph 24.2 mph N/A   Overcast
4:53 PM 66.9 °F - 52.0 °F 59% 30.24 in 10.0 mi South 8.1 mph - N/A   Overcast
5:53 PM 66.0 °F - 52.0 °F 60% 30.23 in 10.0 mi SSE 10.4 mph - N/A   Unknown
6:53 PM 64.0 °F - 53.1 °F 67% 30.23 in 10.0 mi South 9.2 mph - N/A   Partly Cloudy
7:53 PM 63.0 °F - 54.0 °F 72% 30.23 in 10.0 mi SSE 8.1 mph - N/A   Unknown
8:53 PM 61.0 °F - 55.0 °F 81% 30.23 in 10.0 mi SSE 9.2 mph - N/A   Partly Cloudy
9:53 PM 61.0 °F - 55.9 °F 83% 30.21 in 10.0 mi SSE 8.1 mph - N/A   Scattered Clouds
10:53 PM 61.0 °F - 55.9 °F 83% 30.20 in 10.0 mi SSE 8.1 mph - N/A   Scattered Clouds
11:53 PM 62.1 °F - 55.9 °F 80% 30.18 in 10.0 mi SSE 8.1 mph - N/A   Clear